| time (UTC) | temp F | wind direction | speed knots | gust knots | rain 1hr in | rain 24hr in | rain mn in | humidity % | barometer mb |
| 20260902232716 | 87 | 350 | 0.9 | 1.7 | 0.00 | 0.00 | 0.00 | 56 | 1017.9 |
| 20260902231837 | 87 | 345 | 1.7 | 3.5 | 0.00 | 0.00 | 0.00 | 55 | 1017.8 |
| 20260902230916 | 88 | 325 | 0.9 | 3.5 | 0.00 | 0.00 | 0.00 | 55 | 1017.8 |
| 20260902230016 | 88 | 311 | 0.0 | 1.7 | 0.00 | 0.00 | 0.00 | 57 | 1017.9 |
| 20260902225116 | 88 | 0 | 0.0 | 0.0 | 0.00 | 0.00 | 0.00 | 57 | 1017.8 |
| 20260902224237 | 88 | 311 | 0.9 | 1.7 | 0.00 | 0.00 | 0.00 | 56 | 1017.9 |
| 20260902223316 | 88 | 309 | 0.9 | 3.5 | 0.00 | 0.00 | 0.00 | 56 | 1017.8 |
| 20260902222416 | 88 | 307 | 0.9 | 3.5 | 0.00 | 0.00 | 0.00 | 56 | 1017.9 |
| 20260902221516 | 88 | 292 | 1.7 | 3.5 | 0.00 | 0.00 | 0.00 | 56 | 1017.9 |
| 20260902220615 | 88 | 288 | 1.7 | 3.5 | 0.00 | 0.00 | 0.00 | 56 | 1017.8 |
| 20260902215716 | 88 | 294 | 0.9 | 3.5 | 0.00 | 0.00 | 0.00 | 56 | 1017.7 |
| 20260902214816 | 88 | 283 | 0.9 | 2.6 | 0.00 | 0.00 | 0.00 | 56 | 1017.8 |
| 20260902213916 | 88 | 277 | 1.7 | 2.6 | 0.00 | 0.00 | 0.00 | 56 | 1017.7 |
| 20260902213015 | 88 | 277 | 1.7 | 3.5 | 0.00 | 0.00 | 0.00 | 56 | 1017.7 |
| 20260902212136 | 89 | 275 | 1.7 | 3.5 | 0.00 | 0.00 | 0.00 | 56 | 1017.6 |
| 20260902211215 | 89 | 271 | 1.7 | 5.2 | 0.00 | 0.00 | 0.00 | 56 | 1017.7 |
| 20260902210315 | 89 | 274 | 1.7 | 3.5 | 0.00 | 0.00 | 0.00 | 56 | 1017.6 |
| 20260902205415 | 89 | 284 | 1.7 | 5.2 | 0.00 | 0.00 | 0.00 | 56 | 1017.5 |
| 20260902204515 | 89 | 258 | 2.6 | 6.1 | 0.00 | 0.00 | 0.00 | 56 | 1017.4 |
| 20260902203615 | 89 | 246 | 3.5 | 6.1 | 0.00 | 0.00 | 0.00 | 55 | 1017.4 |
| 20260902202715 | 89 | 243 | 3.5 | 7.0 | 0.00 | 0.00 | 0.00 | 55 | 1017.4 |
| 20260902201815 | 89 | 249 | 4.3 | 10.4 | 0.00 | 0.00 | 0.00 | 55 | 1017.3 |
| 20260902200936 | 89 | 237 | 3.5 | 10.4 | 0.00 | 0.00 | 0.00 | 55 | 1017.2 |
| 20260902200015 | 90 | 220 | 3.5 | 7.0 | 0.00 | 0.00 | 0.00 | 55 | 1017.1 |
| 20260902195115 | 90 | 224 | 2.6 | 6.1 | 0.00 | 0.00 | 0.00 | 54 | 1016.7 |
| 20260902194215 | 91 | 234 | 2.6 | 5.2 | 0.00 | 0.00 | 0.00 | 53 | 1016.5 |
| 20260902193315 | 91 | 229 | 2.6 | 6.1 | 0.00 | 0.00 | 0.00 | 53 | 1016.4 |
| 20260902192415 | 92 | 231 | 3.5 | 6.1 | 0.00 | 0.00 | 0.00 | 53 | 1016.3 |
| 20260902191515 | 92 | 233 | 3.5 | 7.8 | 0.00 | 0.00 | 0.00 | 52 | 1016.2 |
| 20260902190636 | 93 | 231 | 3.5 | 7.8 | 0.00 | 0.00 | 0.00 | 51 | 1016.2 |
| 20260902185715 | 93 | 232 | 3.5 | 7.0 | 0.00 | 0.00 | 0.00 | 51 | 1016.1 |
| 20260902184815 | 94 | 229 | 5.2 | 8.7 | 0.00 | 0.00 | 0.00 | 50 | 1016.2 |
| 20260902183915 | 95 | 238 | 4.3 | 10.4 | 0.00 | 0.00 | 0.00 | 49 | 1016.0 |
| 20260902183015 | 96 | 230 | 4.3 | 10.4 | 0.00 | 0.00 | 0.00 | 47 | 1016.0 |
| 20260902182115 | 97 | 228 | 3.5 | 11.3 | 0.00 | 0.00 | 0.00 | 43 | 1016.1 |
| 20260902181215 | 98 | 222 | 3.5 | 7.8 | 0.00 | 0.00 | 0.00 | 41 | 1016.0 |
| 20260902180315 | 99 | 218 | 3.5 | 7.8 | 0.00 | 0.00 | 0.00 | 41 | 1016.0 |
| 20260902175415 | 99 | 215 | 3.5 | 7.8 | 0.00 | 0.00 | 0.00 | 41 | 1016.0 |
| 20260902174536 | 100 | 220 | 3.5 | 7.8 | 0.00 | 0.00 | 0.00 | 40 | 1016.0 |
| 20260902173615 | 101 | 231 | 3.5 | 7.8 | 0.00 | 0.00 | 0.00 | 38 | 1015.9 |
| 20260902172715 | 101 | 251 | 3.5 | 7.8 | 0.00 | 0.00 | 0.00 | 37 | 1015.8 |
| 20260902171836 | 101 | 252 | 2.6 | 7.8 | 0.00 | 0.00 | 0.00 | 35 | 1015.9 |
| 20260902170915 | 102 | 239 | 3.5 | 6.1 | 0.00 | 0.00 | 0.00 | 34 | 1015.9 |
| 20260902170036 | 102 | 244 | 4.3 | 8.7 | 0.00 | 0.00 | 0.00 | 34 | 1016.0 |
| 20260902165115 | 102 | 241 | 4.3 | 8.7 | 0.00 | 0.00 | 0.00 | 34 | 1015.9 |
| 20260902164215 | 102 | 243 | 4.3 | 9.6 | 0.00 | 0.00 | 0.00 | 32 | 1016.1 |
| 20260902163315 | 102 | 230 | 4.3 | 9.6 | 0.00 | 0.00 | 0.00 | 31 | 1016.0 |
| 20260902162415 | 102 | 257 | 5.2 | 9.6 | 0.00 | 0.00 | 0.00 | 33 | 1015.9 |
| 20260902161514 | 102 | 240 | 4.3 | 10.4 | 0.00 | 0.00 | 0.00 | 32 | 1015.8 |
| 20260902160616 | 103 | 237 | 2.6 | 9.6 | 0.00 | 0.00 | 0.00 | 32 | 1015.9 |
| 20260902155714 | 103 | 252 | 2.6 | 6.1 | 0.00 | 0.00 | 0.00 | 33 | 1015.9 |
| 20260902154815 | 102 | 224 | 2.6 | 6.1 | 0.00 | 0.00 | 0.00 | 33 | 1015.8 |
| 20260902153914 | 102 | 237 | 2.6 | 9.6 | 0.00 | 0.00 | 0.00 | 34 | 1015.9 |
| 20260902153014 | 102 | 225 | 2.6 | 6.1 | 0.00 | 0.00 | 0.00 | 33 | 1015.9 |
| 20260902152114 | 102 | 241 | 2.6 | 6.1 | 0.00 | 0.00 | 0.00 | 34 | 1015.9 |
| 20260902151214 | 101 | 177 | 2.6 | 5.2 | 0.00 | 0.00 | 0.00 | 35 | 1016.1 |
| 20260902150314 | 102 | 253 | 1.7 | 4.3 | 0.00 | 0.00 | 0.00 | 35 | 1016.1 |
| 20260902145414 | 102 | 264 | 1.7 | 5.2 | 0.00 | 0.00 | 0.00 | 36 | 1016.1 |
| 20260902144535 | 101 | 260 | 2.6 | 5.2 | 0.00 | 0.00 | 0.00 | 37 | 1016.3 |
| 20260902143614 | 101 | 198 | 2.6 | 5.2 | 0.00 | 0.00 | 0.00 | 36 | 1016.4 |
| 20260902142714 | 100 | 270 | 2.6 | 6.1 | 0.00 | 0.00 | 0.00 | 37 | 1016.4 |
| 20260902141814 | 100 | 285 | 1.7 | 4.3 | 0.00 | 0.00 | 0.00 | 37 | 1016.4 |
| 20260902140914 | 100 | 285 | 1.7 | 5.2 | 0.00 | 0.00 | 0.00 | 37 | 1016.4 |
| 20260902140014 | 101 | 199 | 1.7 | 4.3 | 0.00 | 0.00 | 0.00 | 39 | 1016.5 |
| 20260902135114 | 100 | 54 | 1.7 | 4.3 | 0.00 | 0.00 | 0.00 | 39 | 1016.7 |
| 20260902134214 | 100 | 192 | 0.9 | 4.3 | 0.00 | 0.00 | 0.00 | 40 | 1016.8 |
| 20260902133314 | 100 | 226 | 0.9 | 4.3 | 0.00 | 0.00 | 0.00 | 40 | 1016.7 |
| 20260902132414 | 99 | 13 | 0.9 | 2.6 | 0.00 | 0.00 | 0.00 | 42 | 1016.9 |
| 20260902131514 | 97 | 327 | 1.7 | 3.5 | 0.00 | 0.00 | 0.00 | 43 | 1017.0 |
| 20260902130614 | 96 | 338 | 1.7 | 4.3 | 0.00 | 0.00 | 0.00 | 44 | 1016.9 |
| 20260902125735 | 96 | 44 | 1.7 | 5.2 | 0.00 | 0.00 | 0.00 | 44 | 1017.0 |
| 20260902124814 | 96 | 28 | 1.7 | 5.2 | 0.00 | 0.00 | 0.00 | 45 | 1017.2 |
| 20260902123915 | 96 | 84 | 1.7 | 4.3 | 0.00 | 0.00 | 0.00 | 44 | 1017.2 |
| 20260902123014 | 95 | 41 | 2.6 | 6.1 | 0.00 | 0.00 | 0.00 | 47 | 1017.3 |
| 20260902122115 | 94 | 92 | 3.5 | 8.7 | 0.00 | 0.00 | 0.00 | 47 | 1017.4 |
| 20260902121214 | 93 | 46 | 3.5 | 8.7 | 0.00 | 0.00 | 0.00 | 48 | 1017.4 |
| 20260902120314 | 93 | 76 | 4.3 | 8.7 | 0.00 | 0.00 | 0.00 | 49 | 1017.4 |
| 20260902115414 | 93 | 78 | 3.5 | 8.7 | 0.00 | 0.00 | 0.00 | 49 | 1017.6 |
| 20260902114514 | 92 | 52 | 3.5 | 8.7 | 0.00 | 0.00 | 0.00 | 51 | 1017.6 |
| 20260902113614 | 92 | 72 | 4.3 | 8.7 | 0.00 | 0.00 | 0.00 | 51 | 1017.7 |
| 20260902112714 | 91 | 42 | 3.5 | 9.6 | 0.00 | 0.00 | 0.00 | 52 | 1017.8 |
| 20260902111814 | 90 | 69 | 5.2 | 9.6 | 0.00 | 0.00 | 0.00 | 52 | 1017.9 |
| 20260902110914 | 90 | 73 | 5.2 | 9.6 | 0.00 | 0.00 | 0.00 | 52 | 1018.0 |
| 20260902110014 | 90 | 66 | 4.3 | 10.4 | 0.00 | 0.00 | 0.00 | 53 | 1017.9 |
| 20260902105114 | 89 | 65 | 4.3 | 9.6 | 0.00 | 0.00 | 0.00 | 54 | 1018.1 |
| 20260902104213 | 88 | 74 | 3.5 | 11.3 | 0.00 | 0.00 | 0.00 | 55 | 1018.3 |
| 20260902103314 | 88 | 70 | 3.5 | 9.6 | 0.00 | 0.00 | 0.00 | 56 | 1018.5 |
| 20260902102414 | 87 | 85 | 5.2 | 8.7 | 0.00 | 0.00 | 0.00 | 57 | 1018.4 |
| 20260902101513 | 86 | 66 | 4.3 | 8.7 | 0.00 | 0.00 | 0.00 | 58 | 1018.5 |
| 20260902100613 | 86 | 56 | 4.3 | 8.7 | 0.00 | 0.00 | 0.00 | 57 | 1018.5 |
| 20260902095713 | 85 | 67 | 3.5 | 10.4 | 0.00 | 0.00 | 0.00 | 56 | 1018.5 |
| 20260902094813 | 85 | 43 | 2.6 | 7.8 | 0.00 | 0.00 | 0.00 | 55 | 1018.5 |
| 20260902093913 | 84 | 66 | 3.5 | 5.2 | 0.00 | 0.00 | 0.00 | 53 | 1018.5 |
| 20260902093013 | 82 | 24 | 4.3 | 7.8 | 0.00 | 0.00 | 0.00 | 53 | 1018.5 |
| 20260902092113 | 82 | 15 | 3.5 | 7.0 | 0.00 | 0.00 | 0.00 | 51 | 1018.4 |
| 20260902091213 | 81 | 34 | 3.5 | 6.1 | 0.00 | 0.00 | 0.00 | 52 | 1018.4 |
| 20260902090334 | 80 | 37 | 3.5 | 7.8 | 0.00 | 0.00 | 0.00 | 52 | 1018.4 |
| 20260902085413 | 80 | 43 | 3.5 | 8.7 | 0.00 | 0.00 | 0.00 | 53 | 1018.3 |
| 20260902084513 | 79 | 38 | 2.6 | 6.1 | 0.00 | 0.00 | 0.00 | 54 | 1018.3 |
| 20260902083613 | 79 | 42 | 2.6 | 5.2 | 0.00 | 0.00 | 0.00 | 55 | 1018.5 |
| 20260902082734 | 78 | 40 | 4.3 | 7.8 | 0.00 | 0.00 | 0.00 | 55 | 1018.4 |
| 20260902081813 | 77 | 54 | 4.3 | 7.8 | 0.00 | 0.00 | 0.00 | 56 | 1018.3 |
| 20260902080913 | 77 | 49 | 3.5 | 7.8 | 0.00 | 0.00 | 0.00 | 57 | 1018.4 |
| 20260902080013 | 77 | 47 | 3.5 | 7.8 | 0.00 | 0.00 | 0.00 | 58 | 1018.4 |
| 20260902075113 | 76 | 27 | 3.5 | 7.8 | 0.00 | 0.00 | 0.00 | 59 | 1018.4 |
| 20260902074234 | 76 | 39 | 4.3 | 7.8 | 0.00 | 0.00 | 0.00 | 61 | 1018.3 |
| 20260902073313 | 75 | 40 | 3.5 | 7.0 | 0.00 | 0.00 | 0.00 | 61 | 1018.1 |
| 20260902072435 | 75 | 30 | 3.5 | 6.1 | 0.00 | 0.00 | 0.00 | 62 | 1018.1 |
| 20260902071513 | 74 | 44 | 4.3 | 8.7 | 0.00 | 0.00 | 0.00 | 63 | 1018.0 |
| 20260902070613 | 74 | 44 | 3.5 | 7.8 | 0.00 | 0.00 | 0.00 | 63 | 1018.1 |
| 20260902065734 | 74 | 50 | 2.6 | 7.0 | 0.00 | 0.00 | 0.00 | 63 | 1018.1 |
| 20260902064813 | 74 | 34 | 3.5 | 7.0 | 0.00 | 0.00 | 0.00 | 65 | 1018.1 |
| 20260902063934 | 73 | 40 | 4.3 | 8.7 | 0.00 | 0.00 | 0.00 | 66 | 1018.1 |
| 20260902063034 | 73 | 29 | 3.5 | 8.7 | 0.00 | 0.00 | 0.00 | 67 | 1018.0 |
| 20260902062113 | 73 | 12 | 3.5 | 7.0 | 0.00 | 0.00 | 0.00 | 67 | 1018.0 |
| 20260902061213 | 74 | 354 | 3.5 | 7.0 | 0.00 | 0.00 | 0.00 | 67 | 1018.0 |
| 20260902060313 | 75 | 32 | 2.6 | 5.2 | 0.00 | 0.00 | 0.00 | 67 | 1017.9 |
| 20260902055413 | 75 | 14 | 0.9 | 3.5 | 0.00 | 0.00 | 0.00 | 68 | 1017.9 |
| 20260902054513 | 75 | 29 | 0.9 | 2.6 | 0.00 | 0.00 | 0.00 | 68 | 1017.9 |
| 20260902053613 | 74 | 32 | 0.0 | 1.7 | 0.00 | 0.00 | 0.00 | 68 | 1017.8 |
| 20260902052713 | 74 | 31 | 0.0 | 0.9 | 0.00 | 0.00 | 0.00 | 68 | 1018.0 |
| 20260902051813 | 74 | 31 | 1.7 | 2.6 | 0.00 | 0.00 | 0.00 | 68 | 1017.9 |
| 20260902050913 | 74 | 31 | 1.7 | 2.6 | 0.00 | 0.00 | 0.00 | 68 | 1017.9 |
| 20260902050013 | 74 | 29 | 1.7 | 3.5 | 0.00 | 0.00 | 0.00 | 68 | 1017.8 |
| 20260902045113 | 75 | 59 | 1.7 | 4.3 | 0.00 | 0.00 | 0.00 | 68 | 1017.8 |
| 20260902044213 | 75 | 50 | 2.6 | 4.3 | 0.00 | 0.00 | 0.00 | 68 | 1017.6 |
| 20260902043313 | 75 | 6 | 2.6 | 4.3 | 0.00 | 0.00 | 0.00 | 67 | 1017.6 |
| 20260902042413 | 75 | 17 | 1.7 | 4.3 | 0.00 | 0.00 | 0.00 | 69 | 1017.7 |
| 20260902041512 | 74 | 11 | 0.0 | 5.2 | 0.00 | 0.00 | 0.00 | 72 | 1017.5 |
| 20260902040634 | 74 | 216 | 0.0 | 0.9 | 0.00 | 0.00 | 0.00 | 73 | 1017.6 |
| 20260902035712 | 74 | 216 | 0.9 | 1.7 | 0.00 | 0.00 | 0.00 | 73 | 1017.5 |
| 20260902034812 | 74 | 216 | 0.9 | 1.7 | 0.00 | 0.00 | 0.00 | 73 | 1017.3 |
| 20260902033914 | 74 | 216 | 0.9 | 2.6 | 0.00 | 0.00 | 0.00 | 73 | 1017.2 |
| 20260902033012 | 74 | 216 | 0.9 | 1.7 | 0.00 | 0.00 | 0.00 | 73 | 1017.2 |
| 20260902032133 | 74 | 216 | 0.9 | 1.7 | 0.00 | 0.00 | 0.00 | 73 | 1017.2 |
| 20260902031212 | 74 | 223 | 1.7 | 4.3 | 0.00 | 0.00 | 0.00 | 74 | 1017.4 |
| 20260902030313 | 74 | 261 | 0.9 | 2.6 | 0.00 | 0.00 | 0.00 | 73 | 1017.5 |
| 20260902025412 | 74 | 261 | 0.9 | 1.7 | 0.00 | 0.00 | 0.00 | 73 | 1017.4 |
| 20260902024512 | 74 | 261 | 0.9 | 1.7 | 0.00 | 0.00 | 0.00 | 73 | 1017.5 |
| 20260902023633 | 74 | 261 | 1.7 | 3.5 | 0.00 | 0.00 | 0.00 | 73 | 1017.8 |
| 20260902022713 | 74 | 256 | 1.7 | 3.5 | 0.00 | 0.00 | 0.00 | 73 | 1017.8 |
| 20260902021812 | 74 | 258 | 1.7 | 3.5 | 0.00 | 0.00 | 0.00 | 73 | 1017.7 |
| 20260902020912 | 74 | 254 | 0.9 | 2.6 | 0.00 | 0.00 | 0.00 | 73 | 1017.9 |
| 20260902020012 | 75 | 231 | 1.7 | 2.6 | 0.00 | 0.00 | 0.00 | 72 | 1017.9 |
| 20260902015112 | 75 | 227 | 0.9 | 3.5 | 0.00 | 0.00 | 0.00 | 72 | 1017.8 |
| 20260902014212 | 75 | 257 | 0.9 | 2.6 | 0.00 | 0.00 | 0.00 | 70 | 1017.6 |
| 20260902013312 | 75 | 257 | 0.9 | 2.6 | 0.00 | 0.00 | 0.00 | 69 | 1017.5 |
| 20260902012412 | 75 | 245 | 1.7 | 4.3 | 0.00 | 0.00 | 0.00 | 68 | 1017.6 |
| 20260902011512 | 75 | 214 | 1.7 | 4.3 | 0.00 | 0.00 | 0.00 | 67 | 1017.7 |
| 20260902010612 | 75 | 219 | 2.6 | 5.2 | 0.00 | 0.00 | 0.00 | 67 | 1017.9 |
| 20260902005712 | 75 | 225 | 1.7 | 7.0 | 0.00 | 0.00 | 0.00 | 65 | 1018.0 |
| 20260902004812 | 76 | 233 | 1.7 | 4.3 | 0.00 | 0.00 | 0.00 | 64 | 1018.1 |
| 20260902003912 | 76 | 216 | 2.6 | 5.2 | 0.00 | 0.00 | 0.00 | 63 | 1018.2 |
| 20260902003012 | 76 | 219 | 2.6 | 6.1 | 0.00 | 0.00 | 0.00 | 63 | 1018.0 |
| 20260902002112 | 76 | 225 | 2.6 | 4.3 | 0.00 | 0.00 | 0.00 | 62 | 1018.0 |
| 20260902001212 | 76 | 211 | 1.7 | 6.1 | 0.00 | 0.00 | 0.00 | 61 | 1018.1 |
| 20260902000312 | 76 | 214 | 2.6 | 4.3 | 0.00 | 0.00 | 0.00 | 61 | 1017.9 |
| 20260901235412 | 76 | 219 | 2.6 | 4.3 | 0.00 | 0.00 | 0.00 | 61 | 1017.9 |
| 20260901234512 | 76 | 217 | 1.7 | 4.3 | 0.00 | 0.00 | 0.00 | 61 | 1018.0 |
| 20260901233612 | 77 | 249 | 1.7 | 4.3 | 0.00 | 0.00 | 0.00 | 60 | 1018.0 |